When you browse on this site, cookies collect data to enhance your experience and personalize the content and advertising you see.
Visit our Privacy Policy to learn more. By continuing to use the site, you agree to this use of cookies and data.
  • In Schweiz
  • Länderverzeichnis
  • Für 7 Tage
  • Wassertemperatur
  • Satellitenkarten
  • Wetterkarte
  • Widgets
  • user-avatar
    Anmelden

    Stündliche Wetter Lamu

    Heute, 20 März, Mittwoch

    Zeit Temperatur Niederschläge Wind Luftdruck Luftfeuchtigkeit
    00:00 +28°C° 0 mm 5 m/S 756 mmHg 82%
    01:00 +28°C° 0 mm 5 m/S 756 mmHg 83%
    02:00 +28°C° 0 mm 4 m/S 756 mmHg 85%
    03:00 +28°C° 0 mm 4 m/S 756 mmHg 86%
    04:00 +27°C° 0 mm 4 m/S 756 mmHg 87%
    05:00 +27°C° 0 mm 3 m/S 757 mmHg 88%
    06:00 +27°C° 0 mm 3 m/S 757 mmHg 90%
    07:00 +28°C° 0 mm 3 m/S 757 mmHg 82%
    08:00 +30°C° 0 mm 3 m/S 757 mmHg 74%
    09:00 +31°C° 0 mm 3 m/S 758 mmHg 66%
    10:00 +34°C° 0 mm 3 m/S 758 mmHg 57%
    11:00 +37°C° 0 mm 3 m/S 757 mmHg 49%
    12:00 +39°C° 0 mm 3 m/S 757 mmHg 40%
    13:00 +38°C° 0 mm 4 m/S 756 mmHg 43%
    14:00 +37°C° 0 mm 5 m/S 755 mmHg 46%
    15:00 +36°C° 0 mm 5 m/S 755 mmHg 48%
    16:00 +35°C° 0 mm 5 m/S 755 mmHg 53%
    17:00 +33°C° 0 mm 5 m/S 754 mmHg 58%
    18:00 +32°C° 0 mm 5 m/S 754 mmHg 64%
    19:00 +30°C° 0 mm 5 m/S 755 mmHg 69%
    20:00 +29°C° 0 mm 5 m/S 755 mmHg 74%
    21:00 +29°C° 0 mm 5 m/S 755 mmHg 79%
    22:00 +28°C° 0 mm 4 m/S 756 mmHg 80%
    23:00 +28°C° 0 mm 4 m/S 756 mmHg 82%

    Morgen, 21 März, Donnerstag

    Zeit Temperatur Niederschläge Wind Luftdruck Luftfeuchtigkeit
    00:00 +28°C° 0 mm 4 m/S 756 mmHg 83%
    01:00 +28°C° 0 mm 4 m/S 756 mmHg 85%
    02:00 +27°C° 0 mm 4 m/S 755 mmHg 87%
    03:00 +27°C° 0 mm 4 m/S 755 mmHg 89%
    04:00 +27°C° 0 mm 4 m/S 755 mmHg 90%
    05:00 +27°C° 0 mm 3 m/S 756 mmHg 91%
    06:00 +27°C° 0 mm 3 m/S 756 mmHg 93%
    07:00 +28°C° 0 mm 3 m/S 757 mmHg 83%
    08:00 +30°C° 0 mm 3 m/S 757 mmHg 74%
    09:00 +33°C° 0 mm 3 m/S 758 mmHg 64%
    10:00 +35°C° 0 mm 4 m/S 758 mmHg 56%
    11:00 +37°C° 0 mm 4 m/S 758 mmHg 48%
    12:00 +38°C° 0 mm 4 m/S 758 mmHg 40%
    13:00 +39°C° 0 mm 5 m/S 757 mmHg 42%
    14:00 +37°C° 0 mm 5 m/S 756 mmHg 43%
    15:00 +38°C° 0 mm 6 m/S 755 mmHg 45%
    16:00 +35°C° 0 mm 5 m/S 755 mmHg 51%
    17:00 +34°C° 0 mm 5 m/S 755 mmHg 58%
    18:00 +32°C° 0 mm 5 m/S 755 mmHg 65%
    19:00 +30°C° 0 mm 5 m/S 755 mmHg 70%
    20:00 +29°C° 0 mm 5 m/S 756 mmHg 75%
    21:00 +28°C° 0 mm 5 m/S 757 mmHg 81%
    22:00 +28°C° 0 mm 4 m/S 757 mmHg 83%
    23:00 +28°C° 0 mm 4 m/S 757 mmHg 84%

    übermorgen, 22 März, Freitag

    Zeit Temperatur Niederschläge Wind Luftdruck Luftfeuchtigkeit
    00:00 +27°C° 0 mm 4 m/S 757 mmHg 86%
    01:00 +27°C° 0 mm 4 m/S 756 mmHg 88%
    02:00 +27°C° 0 mm 4 m/S 756 mmHg 89%
    03:00 +27°C° 0 mm 3 m/S 755 mmHg 90%
    04:00 +27°C° 0 mm 3 m/S 756 mmHg 91%
    05:00 +27°C° 0 mm 3 m/S 756 mmHg 91%
    06:00 +26°C° 0 mm 3 m/S 756 mmHg 92%
    07:00 +29°C° 0 mm 3 m/S 757 mmHg 80%
    08:00 +31°C° 0 mm 3 m/S 758 mmHg 69%
    09:00 +34°C° 0 mm 3 m/S 759 mmHg 58%
    10:00 +35°C° 0 mm 3 m/S 758 mmHg 53%
    11:00 +37°C° 0 mm 4 m/S 758 mmHg 48%
    12:00 +39°C° 0 mm 5 m/S 758 mmHg 43%
    13:00 +39°C° 0 mm 5 m/S 757 mmHg 43%
    14:00 +39°C° 0 mm 5 m/S 756 mmHg 44%
    15:00 +37°C° 0 mm 5 m/S 755 mmHg 45%
    16:00 +36°C° 0 mm 5 m/S 755 mmHg 52%
    17:00 +34°C° 0 mm 5 m/S 755 mmHg 60%
    18:00 +32°C° 0 mm 5 m/S 755 mmHg 67%
    19:00 +30°C° 0 mm 5 m/S 756 mmHg 72%
    20:00 +29°C° 0 mm 5 m/S 757 mmHg 77%
    21:00 +29°C° 0 mm 5 m/S 757 mmHg 82%
    22:00 +28°C° 0 mm 4 m/S 758 mmHg 84%
    23:00 +28°C° 0 mm 4 m/S 758 mmHg 86%

    23 März, Samstag

    Zeit Temperatur Niederschläge Wind Luftdruck Luftfeuchtigkeit
    00:00 +28°C° 0 mm 4 m/S 758 mmHg 88%
    01:00 +27°C° 0 mm 4 m/S 757 mmHg 89%
    02:00 +27°C° 0 mm 3 m/S 757 mmHg 90%
    03:00 +27°C° 0 mm 3 m/S 756 mmHg 91%
    04:00 +27°C° 0 mm 3 m/S 757 mmHg 91%
    05:00 +26°C° 0 mm 3 m/S 757 mmHg 92%
    06:00 +26°C° 0 mm 3 m/S 757 mmHg 92%
    07:00 +28°C° 0 mm 3 m/S 758 mmHg 80%
    08:00 +31°C° 0 mm 3 m/S 758 mmHg 68%
    09:00 +34°C° 0 mm 3 m/S 759 mmHg 57%
    10:00 +35°C° 0 mm 3 m/S 758 mmHg 51%
    11:00 +37°C° 0 mm 4 m/S 758 mmHg 45%
    12:00 +38°C° 0 mm 4 m/S 758 mmHg 39%
    13:00 +39°C° 0 mm 5 m/S 757 mmHg 40%
    14:00 +37°C° 0 mm 5 m/S 756 mmHg 42%
    15:00 +37°C° 0 mm 5 m/S 755 mmHg 43%
    16:00 +35°C° 0 mm 5 m/S 755 mmHg 49%
    17:00 +33°C° 0 mm 5 m/S 755 mmHg 56%
    18:00 +32°C° 0 mm 5 m/S 755 mmHg 63%
    19:00 +30°C° 0 mm 5 m/S 756 mmHg 69%
    20:00 +29°C° 0 mm 4 m/S 756 mmHg 75%
    21:00 +28°C° 0 mm 4 m/S 757 mmHg 81%
    22:00 +27°C° 0 mm 4 m/S 757 mmHg 83%
    23:00 +27°C° 0 mm 3 m/S 757 mmHg 86%

    24 März, Sonntag

    Zeit Temperatur Niederschläge Wind Luftdruck Luftfeuchtigkeit
    00:00 +27°C° 0 mm 3 m/S 757 mmHg 88%
    01:00 +26°C° 0 mm 3 m/S 757 mmHg 89%
    02:00 +26°C° 0 mm 3 m/S 756 mmHg 90%
    03:00 +26°C° 0 mm 3 m/S 755 mmHg 91%
    04:00 +26°C° 0 mm 3 m/S 756 mmHg 92%
    05:00 +26°C° 0 mm 3 m/S 756 mmHg 92%
    06:00 +26°C° 0 mm 3 m/S 757 mmHg 92%
    07:00 +28°C° 0 mm 3 m/S 757 mmHg 82%
    08:00 +30°C° 0 mm 3 m/S 758 mmHg 71%
    09:00 +32°C° 0 mm 2 m/S 758 mmHg 61%
    10:00 +35°C° 0 mm 3 m/S 758 mmHg 54%
    11:00 +36°C° 0 mm 3 m/S 757 mmHg 47%
    12:00 +38°C° 0 mm 4 m/S 757 mmHg 40%
    13:00 +38°C° 0 mm 4 m/S 756 mmHg 41%
    14:00 +37°C° 0 mm 5 m/S 755 mmHg 42%
    15:00 +37°C° 0 mm 5 m/S 754 mmHg 43%
    16:00 +35°C° 0 mm 5 m/S 754 mmHg 49%
    17:00 +34°C° 0 mm 5 m/S 754 mmHg 56%
    18:00 +32°C° 0 mm 4 m/S 754 mmHg 62%
    19:00 +30°C° 0 mm 4 m/S 755 mmHg 68%
    20:00 +29°C° 0 mm 4 m/S 755 mmHg 73%
    21:00 +28°C° 0 mm 4 m/S 756 mmHg 79%
    22:00 +28°C° 0 mm 4 m/S 756 mmHg 81%
    23:00 +28°C° 0 mm 4 m/S 756 mmHg 83%

    25 März, Montag

    Zeit Temperatur Niederschläge Wind Luftdruck Luftfeuchtigkeit
    00:00 +27°C° 0 mm 4 m/S 755 mmHg 85%
    01:00 +27°C° 0 mm 4 m/S 755 mmHg 87%
    02:00 +27°C° 0 mm 3 m/S 755 mmHg 88%
    03:00 +26°C° 0 mm 3 m/S 754 mmHg 90%
    04:00 +26°C° 0 mm 3 m/S 755 mmHg 91%
    05:00 +26°C° 0 mm 3 m/S 755 mmHg 92%
    06:00 +26°C° 0 mm 3 m/S 756 mmHg 93%
    07:00 +28°C° 0 mm 2 m/S 756 mmHg 80%
    08:00 +31°C° 0 mm 2 m/S 757 mmHg 68%
    09:00 +34°C° 0 mm 2 m/S 757 mmHg 56%
    10:00 +36°C° 0 mm 3 m/S 757 mmHg 50%
    11:00 +37°C° 0 mm 3 m/S 756 mmHg 44%
    12:00 +40°C° 0 mm 4 m/S 756 mmHg 38%
    13:00 +40°C° 0 mm 4 m/S 755 mmHg 39%
    14:00 +39°C° 0 mm 5 m/S 754 mmHg 41%
    15:00 +39°C° 0 mm 5 m/S 754 mmHg 42%
    16:00 +36°C° 0 mm 5 m/S 754 mmHg 49%
    17:00 +34°C° 0 mm 5 m/S 754 mmHg 56%
    18:00 +32°C° 0 mm 5 m/S 754 mmHg 64%
    19:00 +30°C° 0 mm 5 m/S 755 mmHg 69%
    20:00 +29°C° 0 mm 5 m/S 755 mmHg 75%
    21:00 +29°C° 0 mm 5 m/S 756 mmHg 80%
    22:00 +28°C° 0 mm 5 m/S 756 mmHg 81%
    23:00 +28°C° 0 mm 5 m/S 756 mmHg 82%
    Mehr zeigen